Home   Weather   Götzis   Past weeks

Flag for Austria Past Weather in Götzis, Vorarlberg, Austria — Yesterday and Last 2 Weeks

Now
19 °F

Cold.


Feels Like: 19 °F
Forecast: 17 / 38 °F
Wind: No wind

Location: Feldkirch

Current Time: Jan 20, 2017 at 11:37:20 pm

Latest Report: Jan 20, 2017 at 10:00 pm


Visibility: N/A

Pressure: 30.55 "Hg

Humidity: 89%

Dew Point: 16 °F

Location of GötzisLocation

Past Weather in Götzis — Graph

°F

Götzis Temperature Yesterday

Maximum temperature yesterday: 24 °F (at 3:00 pm)
Minimum temperature yesterday: 6 °F (at 8:00 am)
Average temperature yesterday: 15 °F

High & Low Weather Summary for the Past Weeks

 TemperatureHumidityPressure
High43 °F (Jan 13, 3:00 am)98% (Jan 12, 6:00 am)30.75 "Hg (Jan 12, 6:00 am)
Low6 °F (Jan 7, 4:00 am)60% (Jan 13, 5:00 am)29.47 "Hg (Jan 13, 2:00 am)
Average25 °F85%30.29 "Hg
* Reported Jan 5 10:00 pm — Jan 20 10:00 pm, Götzis, Weather by CustomWeather, © 2017

Note: Actual official high and low records may vary slightly from our data, if they occured in-between our weather recording intervals... More about our weather records

Advertising

Götzis Weather History for the Previous 24 Hours

Scroll right to see more
 ConditionsComfort  
Time TempWeatherWind HumidityBarometerVisibility
10:00 pm
Fri, Jan 20
19 °FCold.No wind89%30.55 "HgN/A
9:00 pm19 °FCold.1 mph88%30.55 "HgN/A
8:00 pm20 °FCold.1 mph87%30.54 "HgN/A
7:00 pm20 °FCold.1 mph87%30.54 "HgN/A
6:00 pm20 °FCold.1 mph86%30.54 "HgN/A
5:00 pm20 °FCold.1 mph85%30.54 "HgN/A
4:00 pm20 °FCold.1 mph84%30.53 "HgN/A
3:00 pm21 °FCold.1 mph83%30.53 "HgN/A
2:00 pm21 °FCold.1 mph83%30.54 "HgN/A
1:00 pm20 °FCold.1 mph82%30.55 "HgN/A
12:00 pm19 °FCold.No wind87%30.57 "HgN/A
11:00 am17 °FPassing clouds.1 mph88%30.58 "Hg2 mi
10:00 am14 °FCold.1 mph88%30.59 "HgN/A
9:00 am11 °FCold.No wind88%30.60 "HgN/A
8:00 am8 °FFrigid.No wind87%30.60 "HgN/A
7:00 am7 °FPassing clouds.No wind91%30.59 "Hg6 mi
6:00 am6 °FFrigid.1 mph88%30.59 "HgN/A
5:00 am7 °FFrigid.1 mph89%30.59 "HgN/A
4:00 am7 °FFrigid.No wind89%30.58 "HgN/A
3:00 am7 °FFrigid.No wind89%30.59 "HgN/A
2:00 am10 °FFrigid.No wind89%30.57 "HgN/A
1:00 am10 °FFrigid.1 mph90%30.58 "HgN/A
12:00 am11 °FCold.No wind90%30.58 "HgN/A
11:00 pm
Thu, Jan 19
12 °FCold.No wind92%30.59 "HgN/A
Weather by CustomWeather, © 2017

See weather overviewHow to use our weather pages